Location: Mercogliano
(40.9167°N, 14.7333°E)
Time: 20:24:50
(UTC+00:00)

N. Korean satellite - Visible Passes

Search period start: 29 November 2020 00:00
Search period end: 09 December 2020 00:00
Orbit: 452 x 504 km, 97.2° (Epoch: 29 November)

Date Brightness Start Highest point End Pass type
(mag) Time Alt. Az. Time Alt. Az. Time Alt. Az.
29 Nov 9.9 03:30:31 10° ENE 03:32:19 13° E 03:34:07 10° ESE visible
29 Nov 7.1 05:02:26 10° N 05:05:46 36° WNW 05:09:08 10° SW visible
30 Nov 6.5 04:35:56 10° N 04:39:33 83° WNW 04:43:12 10° SSW visible
30 Nov 9.8 16:45:47 10° WSW 16:47:33 13° W 16:49:20 10° WNW visible
01 Dec 7.9 04:09:46 10° NNE 04:13:14 42° E 04:16:43 10° S visible
01 Dec 8.8 16:18:04 10° SSW 16:21:04 29° W 16:24:07 10° NW visible
02 Dec 9.3 03:44:04 10° NE 03:46:48 20° E 03:49:33 10° SE visible
02 Dec 7.6 05:17:05 10° NNW 05:20:05 24° WNW 05:23:06 10° SW visible
03 Dec 6.7 04:50:20 10° N 04:53:53 52° WNW 04:57:28 10° SSW visible
04 Dec 6.9 04:23:57 10° NNE 04:27:36 68° ESE 04:31:15 10° S visible
04 Dec 9.6 16:32:56 10° SW 16:35:27 19° W 16:38:00 10° NW visible
05 Dec 8.6 03:57:56 10° NE 04:01:12 30° E 04:04:28 10° SSE visible
05 Dec 8.1 05:31:52 10° NNW 05:34:18 17° WNW 05:36:44 10° WSW visible
05 Dec 8.0 16:05:43 10° S 16:08:58 42° W 16:12:18 10° NNW visible
06 Dec 9.8 03:32:36 10° ENE 03:34:42 15° E 03:36:48 10° SE visible
06 Dec 7.2 05:04:47 10° N 05:08:07 34° WNW 05:11:28 10° SW visible
07 Dec 6.5 04:38:10 10° N 04:41:50 77° WNW 04:45:31 10° SSW visible
07 Dec 9.9 16:48:11 10° WSW 16:49:47 13° W 16:51:24 10° WNW visible
08 Dec 7.7 04:11:55 10° NNE 04:15:29 46° E 04:19:02 10° S visible
08 Dec 8.9 16:20:15 10° SSW 16:23:14 27° W 16:26:16 10° NW visible
